New Richmond, WI

7:55 AM CDT on August 23, 2017 (GMT -0500)
New Richmond Municipal

Weather History for KRNH - January, 2013

Change the Weather History Date:

Thursday, January 10, 2013

  Actual Average (KSTP) Record (KSTP)
Temperature  
Mean Temperature 30 °F -  
Max Temperature 37 °F 21 °F 53 °F (2012)
Min Temperature 24 °F 7 °F -9 °F (2016)
Degree Days  
Heating Degree Days 34    
Moisture  
Dew Point 25 °F    
Average Humidity 75    
Maximum Humidity 100    
Minimum Humidity 52    
Precipitation  
Precipitation 0.35 in - - ()
Sea Level Pressure  
Sea Level Pressure 30.10 in    
Wind  
Wind Speed 9 mph (SE)    
Max Wind Speed 13 mph    
Max Gust Speed 17 mph    
Visibility 8 miles    
Events Rain    
Averages and records for this station are not official NWS values.
T = Trace of Precipitation, MM = Missing Value Source: NWS Daily Summary

Daily Weather History Graph

Daily Weather History Graph

Search for Another Location

Airport or City:

Trip Planner

Search our weather history database for the weather conditions in past years. The results will help you decide how hot, cold, wet, or windy it might be!

Date:

Astronomy

Jan. 10, 2013 Rise Set
Actual Time 7:47 AM CST 4:48 PM CST
Civil Twilight 7:14 AM CST 5:21 PM CST
Nautical Twilight 6:37 AM CST 5:58 PM CST
Astronomical Twilight 6:02 AM CST 6:33 PM CST
Moon 6:27 AM CST (1/10) 3:57 PM CST (1/10)
Length of Visible Light 10h 07m
Length of Day
9h 01m
Waning Crescent, 2% of the Moon is Illuminated
Jan 10
Waning Crescent
Jan 11
New
Jan 18
First Quarter
Jan 26
Full
Feb 3
Last Quarter

Hourly Weather History & Observations

Time (CST) Temp. Windchill Dew Point Humidity Pressure Visibility Wind Dir Wind Speed Gust Speed Precip Events Conditions
12:15 AM 24.8 °F 16.9 °F 21.2 °F 86% 30.32 in 10.0 mi SSE 6.9 mph - N/A   Clear
12:35 AM 26.6 °F 17.5 °F 21.2 °F 80% 30.33 in 10.0 mi South 9.2 mph - N/A   Clear
12:55 AM 26.6 °F 17.5 °F 21.2 °F 80% 30.32 in 10.0 mi SSE 9.2 mph - N/A   Clear
2:15 AM 26.6 °F 19.1 °F 19.4 °F 74% 30.33 in 10.0 mi SSE 6.9 mph - N/A   Clear
2:35 AM 28.4 °F 21.2 °F 21.2 °F 74% 30.33 in 10.0 mi SSE 6.9 mph - N/A   Clear
2:55 AM 28.4 °F 20.4 °F 21.2 °F 74% 30.32 in 10.0 mi SSE 8.1 mph - N/A   Clear
3:15 AM 30.2 °F 21.9 °F 21.2 °F 69% 30.31 in 10.0 mi SSE 9.2 mph - N/A   Clear
3:35 AM 30.2 °F 22.6 °F 21.2 °F 69% 30.31 in 10.0 mi SSE 8.1 mph - N/A   Clear
3:55 AM 30.2 °F 21.9 °F 21.2 °F 69% 30.31 in 10.0 mi South 9.2 mph - N/A   Clear
4:15 AM 30.2 °F 21.9 °F 21.2 °F 69% 30.30 in 10.0 mi SSE 9.2 mph - N/A   Clear
4:35 AM 30.2 °F 21.9 °F 23.0 °F 75% 30.29 in 10.0 mi SSE 9.2 mph - N/A   Clear
4:55 AM 30.2 °F 21.9 °F 23.0 °F 75% 30.29 in 10.0 mi SSE 9.2 mph - N/A   Clear
5:15 AM 30.2 °F 21.9 °F 21.2 °F 69% 30.28 in 10.0 mi SSE 9.2 mph - N/A   Clear
5:35 AM 30.2 °F 22.6 °F 21.2 °F 69% 30.28 in 10.0 mi SSE 8.1 mph - N/A   Clear
5:55 AM 30.2 °F 21.3 °F 21.2 °F 69% 30.28 in 10.0 mi SSE 10.4 mph - N/A   Clear
6:15 AM 30.2 °F 21.3 °F 21.2 °F 69% 30.28 in 10.0 mi SSE 10.4 mph - N/A   Clear
6:35 AM 30.2 °F 20.8 °F 23.0 °F 75% 30.28 in 10.0 mi SSE 11.5 mph - N/A   Clear
6:55 AM 30.2 °F 20.2 °F 23.0 °F 75% 30.27 in 10.0 mi South 12.7 mph - N/A   Clear
7:35 AM 30.2 °F 20.8 °F 23.0 °F 75% 30.27 in 10.0 mi SSE 11.5 mph - N/A   Clear
7:55 AM 30.2 °F 21.9 °F 21.2 °F 69% 30.27 in 10.0 mi SSE 9.2 mph - N/A   Clear
8:15 AM 30.2 °F 22.6 °F 21.2 °F 69% 30.28 in 10.0 mi SSE 8.1 mph - N/A   Clear
8:35 AM 30.2 °F 22.6 °F 21.2 °F 69% 30.27 in 10.0 mi SSE 8.1 mph - N/A   Clear
8:55 AM 32.0 °F 24.8 °F 21.2 °F 64% 30.26 in 10.0 mi SSE 8.1 mph - N/A   Clear
9:15 AM 32.0 °F 24.8 °F 23.0 °F 69% 30.26 in 10.0 mi SSE 8.1 mph - N/A   Clear
9:35 AM 32.0 °F 23.6 °F 23.0 °F 69% 30.25 in 10.0 mi SSE 10.4 mph - N/A   Clear
9:55 AM 32.0 °F 22.5 °F 23.0 °F 69% 30.25 in 10.0 mi SSE 12.7 mph 16.1 mph N/A   Clear
10:15 AM 32.0 °F 23.0 °F 23.0 °F 69% 30.24 in 10.0 mi SSE 11.5 mph 16.1 mph N/A   Clear
10:35 AM 33.8 °F 25.3 °F 23.0 °F 65% 30.23 in 10.0 mi SSE 11.5 mph - N/A   Clear
10:55 AM 33.8 °F 25.3 °F 23.0 °F 65% 30.21 in 10.0 mi SSE 11.5 mph - N/A   Clear
11:15 AM 33.8 °F 25.8 °F 23.0 °F 65% 30.20 in 10.0 mi SSE 10.4 mph - N/A   Clear
11:35 AM 35.6 °F 28.6 °F 23.0 °F 60% 30.18 in 10.0 mi SSE 9.2 mph 16.1 mph N/A   Clear
11:55 AM 35.6 °F 28.0 °F 23.0 °F 60% 30.17 in 10.0 mi SSE 10.4 mph - N/A   Clear
12:15 PM 35.6 °F 28.6 °F 23.0 °F 60% 30.16 in 10.0 mi SSE 9.2 mph - N/A   Clear
12:35 PM 35.6 °F 29.2 °F 21.2 °F 56% 30.14 in 10.0 mi SSE 8.1 mph - N/A   Clear
12:55 PM 35.6 °F 31.7 °F 21.2 °F 56% 30.12 in 10.0 mi SE 4.6 mph - N/A   Clear
1:15 PM 37.4 °F 31.4 °F 21.2 °F 52% 30.10 in 10.0 mi SSE 8.1 mph - N/A   Clear
1:35 PM 35.6 °F 29.2 °F 23.0 °F 60% 30.09 in 10.0 mi SE 8.1 mph - N/A   Clear
1:55 PM 35.6 °F 29.2 °F 21.2 °F 56% 30.07 in 10.0 mi SE 8.1 mph - N/A   Clear
2:15 PM 35.6 °F 28.6 °F 21.2 °F 56% 30.07 in 10.0 mi SE 9.2 mph - N/A   Clear
2:35 PM 35.6 °F 28.6 °F 21.2 °F 56% 30.06 in 10.0 mi SE 9.2 mph - N/A   Clear
2:55 PM 35.6 °F 29.9 °F 21.2 °F 56% 30.06 in 10.0 mi SE 6.9 mph - N/A   Clear
3:15 PM 35.6 °F 30.7 °F 21.2 °F 56% 30.04 in 10.0 mi ESE 5.8 mph - N/A   Clear
3:35 PM 35.6 °F 30.7 °F 23.0 °F 60% 30.04 in 10.0 mi ESE 5.8 mph - N/A   Clear
3:55 PM 35.6 °F 29.9 °F 23.0 °F 60% 30.03 in 10.0 mi ESE 6.9 mph - N/A   Mostly Cloudy
4:15 PM 35.6 °F 30.7 °F 23.0 °F 60% 30.02 in 10.0 mi SE 5.8 mph - N/A   Overcast
4:35 PM 35.6 °F 31.7 °F 21.2 °F 56% 30.01 in 10.0 mi ESE 4.6 mph - N/A   Overcast
4:55 PM 35.6 °F 30.7 °F 21.2 °F 56% 30.00 in 10.0 mi SE 5.8 mph - N/A Rain Light Rain
5:15 PM 33.8 °F 27.0 °F 24.8 °F 70% 29.99 in 10.0 mi SE 8.1 mph - N/A Rain Rain
5:35 PM 33.8 °F 26.4 °F 26.6 °F 75% 29.98 in 7.0 mi ESE 9.2 mph - 0.01 in Rain Light Rain
5:55 PM 33.8 °F 26.4 °F 26.6 °F 75% 29.96 in 10.0 mi ESE 9.2 mph - 0.01 in Rain Light Rain
6:15 PM 33.8 °F 26.4 °F 28.4 °F 81% 29.95 in 7.0 mi ESE 9.2 mph - 0.02 in Rain Rain
6:35 PM 33.8 °F 27.0 °F 28.4 °F 81% 29.93 in 5.0 mi ESE 8.1 mph - 0.03 in Rain Rain
6:55 PM 33.8 °F 25.8 °F 28.4 °F 81% 29.92 in 4.0 mi SE 10.4 mph 17.3 mph 0.08 in Rain Light Rain
7:15 PM 32.0 °F 24.2 °F 30.2 °F 93% 29.90 in 3.0 mi ESE 9.2 mph - 0.06 in Rain Rain
7:35 PM 32.0 °F 24.8 °F 32.0 °F 100% 29.88 in 5.0 mi ESE 8.1 mph 16.1 mph 0.11 in Rain Rain
7:55 PM 32.0 °F 24.2 °F 32.0 °F 100% 29.87 in 4.0 mi ESE 9.2 mph 16.1 mph 0.15 in Rain Rain
8:15 PM 32.0 °F 23.6 °F 32.0 °F 100% 29.84 in 4.0 mi ESE 10.4 mph 17.3 mph 0.03 in Rain Heavy Rain
8:35 PM 32.0 °F 23.0 °F 32.0 °F 100% 29.83 in 5.0 mi SE 11.5 mph - 0.05 in Rain Light Rain
8:55 PM 32.0 °F 23.6 °F 32.0 °F 100% 29.82 in 5.0 mi SE 10.4 mph - 0.07 in Rain Light Rain
9:15 PM 32.0 °F 24.2 °F 32.0 °F 100% 29.82 in 5.0 mi SE 9.2 mph - 0.02 in Rain Light Rain
9:35 PM 32.0 °F 24.2 °F 32.0 °F 100% 29.80 in 5.0 mi SE 9.2 mph - 0.03 in Rain Light Rain
9:55 PM 32.0 °F 24.2 °F 32.0 °F 100% 29.79 in 7.0 mi SE 9.2 mph - 0.03 in Rain Light Rain
10:15 PM 32.0 °F 23.6 °F 32.0 °F 100% 29.77 in 4.0 mi SE 10.4 mph - 0.01 in Rain Light Rain
10:35 PM 32.0 °F 23.0 °F 32.0 °F 100% 29.75 in 4.0 mi SE 11.5 mph 17.3 mph 0.01 in   Overcast
10:55 PM 32.0 °F 23.6 °F 32.0 °F 100% 29.76 in 4.0 mi SE 10.4 mph - 0.01 in   Overcast
11:15 PM 32.0 °F 24.8 °F 32.0 °F 100% 29.77 in 2.5 mi SSE 8.1 mph - N/A   Overcast
11:35 PM 32.0 °F 24.2 °F 32.0 °F 100% 29.77 in 1.5 mi SSE 9.2 mph - N/A   Overcast
11:55 PM 32.0 °F 24.2 °F 32.0 °F 100% 29.76 in 1.2 mi SSE 9.2 mph - N/A   Drizzle